Regional Weather Roundup
Issued by NWS Jackson, KY

Home | Current Version | Previous Version | Graphics & Text | Print | Product List | Glossary On
Versions: 1 2 3 4 5 6 7 8 9 10 11 12 13 14 15 16 17 18 19 20 21 22 23 24 25 26 27
000
ASUS43 KJKL 070310
RWRJKL

EAST KENTUCKY HOURLY WEATHER ROUNDUP
NATIONAL WEATHER SERVICE JACKSON KY
1000 PM EST TUE DEC 06 2016

NOTE: "FAIR" INDICATES FEW OR NO CLOUDS BELOW 12,000 FEET WITH
NO SIGNIFICANT WEATHER AND/OR OBSTRUCTIONS TO VISIBILITY.

* THESE REPORTS ARE NOT UNDER NWS QUALITY CONTROL AND MAY NOT
  REPORT WEATHER SUCH AS PRECIPITATION AND FOG.

KYZ079-080-083-085-087-088-110-112-115-119-120-070400
...EASTERN KENTUCKY...

CITY           SKY/WX    TMP DP  RH WIND       PRES   REMARKS
JACKSON        CLOUDY    43  39  86 W6        29.95R
LONDON         CLOUDY    44  38  79 W6        29.98R
SOMERSET*      CLOUDY    43  36  75 NW6       30.02R
MONTICELLO*    CLOUDY    43  38  82 NW8G16    30.02R
WILLIAMSBURG*  CLOUDY    43  43 100 W5        29.99R
MIDDLESBORO*   CLOUDY    47  42  82 NW8       29.97R
HARLAN APT*    CLOUDY    45  37  76 W5        29.95R
PIKE CO APT*   CLOUDY    44  43  97 W10       29.92R
BIG SANDY APT* CLOUDY    45  42  89 NW7       29.93R
MOREHEAD APT*  CLOUDY    43  37  81 NW7G13    29.98R
ASHLAND*       CLOUDY    46  39  76 NW9       29.92R
$$

KYZ035-036-041-042-044-050-067-078-099-070400
...CENTRAL KENTUCKY...

CITY           SKY/WX    TMP DP  RH WIND       PRES   REMARKS
MT STERLING*   CLOUDY    41  37  87 NW3       30.00R
FLEMING/MASON* CLOUDY    41  35  80 W13G20    29.98R
DANVILLE*      CLOUDY    41  36  81 NW9       30.00R
LEXINGTON      CLOUDY    42  35  76 NW13      29.99R
FRANKFORT      CLOUDY    42  33  70 NW8G18    29.99R
LOUISVILLE     CLOUDY    40  32  73 NW8       30.03R WCI  34
LEBANON*       CLOUDY    41  37  87 NW9       30.01R
GLASGOW*       CLOUDY    40  38  92 NW6       30.02S
BOWLING GREEN  CLOUDY    41  35  79 NW8       30.05R
$$

KYZ091>093-OHZ055-061-077-WVZ005-015-034-035-042-070400
...SOUTHERN OHIO/WEST VIRGINIA...

CITY           SKY/WX    TMP DP  RH WIND       PRES   REMARKS
COVINGTON      CLOUDY    37  32  82 W15       29.97R WCI  28
COLUMBUS       DRIZZLE   38  38 100 W9        29.89R FOG     WCI  31
DAYTON         CLOUDY    35  31  85 W15G22    29.94R WCI  25
WILMINGTON     CLOUDY    38  34  85 W14       29.93R WCI  30
HUNTINGTON     CLOUDY    45  40  82 W7        29.92R
CHARLESTON     CLOUDY    47  43  86 W10G20    29.88R
PINEVILLE*     CLOUDY    44  42  90 MISG      29.92R
BECKLEY        CLOUDY    42  41  96 W8        29.85R FOG
BLUEFIELD      CLOUDY    42  41  96 W9G20     29.86R FOG
LOGAN CO APT*  CLOUDY    46  43  87 VRB5G15   29.89R
$$

VAZ002-007-008-TNZ017-027-036-066-071-070400
...SOUTHWEST VIRGINIA/EAST TENNESSEE...

CITY           SKY/WX    TMP DP  RH WIND       PRES   REMARKS
WISE*          CLOUDY    43  43 100 NW8G16    29.91R
ABINGDON*      CLOUDY    46  46 100 W3        29.90R FOG
BRISTOL        CLOUDY    46  45  96 CALM      29.91R
MORRISTOWN*    MOCLDY    50  45  81 N8        29.93R
SEVIERVILLE*   CLOUDY    48  45  87 W10       29.95R
KNOXVILLE      CLOUDY    50  46  86 NW5       29.96R
OAK RIDGE      CLEAR     47  42  83 VRB3      29.98R
CROSSVILLE     CLOUDY    42  38  85 NW8       29.98R
NASHVILLE      CLOUDY    45  39  79 N7        30.04R
$$

...KEY TO REMARKS...
VSB - VISIBILITY IN MILES
WCI - WIND CHILL INDEX
HX  - HEAT INDEX

$$




USA.gov is the U.S. government's official web portal to all federal, state and local government web resources and services.